Beatrice, NE

10:55 PM CDT on July 21, 2017 (GMT -0500)
Beatrice Municipal

Weather History for KBIE - January, 1999

Change the Weather History Date:

Friday, January 1, 1999

  Actual Average Record
Temperature  
Mean Temperature 16 °F -  
Max Temperature 19 °F 31 °F 64 °F (2005)
Min Temperature 14 °F 12 °F -16 °F (1974)
Degree Days  
Heating Degree Days 48    
Moisture  
Dew Point 10 °F    
Average Humidity 78    
Maximum Humidity 86    
Minimum Humidity 68    
Precipitation  
Precipitation 0.00 in - - ()
Sea Level Pressure  
Sea Level Pressure 30.03 in    
Wind  
Wind Speed 12 mph (ENE)    
Max Wind Speed 20 mph    
Max Gust Speed 25 mph    
Visibility 6 miles    
Events      
Averages and records for this station are not official NWS values.
T = Trace of Precipitation, MM = Missing Value Source: NWS Daily Summary

Daily Weather History Graph

Daily Weather History Graph

Search for Another Location

Airport or City:

Trip Planner

Search our weather history database for the weather conditions in past years. The results will help you decide how hot, cold, wet, or windy it might be!

Date:

Astronomy

Jan. 01, 1999 Rise Set
Actual Time 7:49 AM CST 5:11 PM CST
Civil Twilight 7:19 AM CST 5:42 PM CST
Nautical Twilight 6:45 AM CST 6:16 PM CST
Astronomical Twilight 6:12 AM CST 6:49 PM CST
Moon 5:11 PM CST (1/1) 7:05 AM CST (1/1)
Length of Visible Light 10h 22m
Length of Day
9h 21m
Full, 100% of the Moon is Illuminated
Jan 1
Full
Jan 1
Full
Jan 9
Last Quarter
Jan 17
New
Jan 24
First Quarter

Hourly Weather History & Observations

Time (CST) Temp. Windchill Dew Point Humidity Pressure Visibility Wind Dir Wind Speed Gust Speed Precip Events Conditions
12:49 AM 19.4 °F 9.5 °F 10.4 °F 68% 30.12 in 10.0 mi East 8.1 mph - N/A   Overcast
1:13 AM 19.4 °F 8.6 °F 10.4 °F 68% 30.10 in 10.0 mi East 9.2 mph - N/A   Overcast
1:51 AM 17.6 °F 4.3 °F 10.4 °F 73% 30.08 in 10.0 mi East 12.7 mph - N/A   Overcast
2:09 AM 17.6 °F 5.0 °F 10.4 °F 73% 30.08 in 10.0 mi East 11.5 mph - N/A   Overcast
2:29 AM 17.6 °F 6.4 °F 10.4 °F 73% 30.09 in 10.0 mi East 9.2 mph - N/A   Overcast
2:49 AM 17.6 °F 7.3 °F 10.4 °F 73% 30.10 in 10.0 mi East 8.1 mph - N/A   Overcast
3:31 AM 17.6 °F 4.3 °F 10.4 °F 73% 30.08 in 10.0 mi East 12.7 mph - N/A   Overcast
3:51 AM 17.6 °F 4.3 °F 10.4 °F 73% 30.06 in 10.0 mi East 12.7 mph - N/A   Overcast
4:11 AM 17.6 °F 7.3 °F 10.4 °F 73% 30.06 in 10.0 mi East 8.1 mph - N/A   Overcast
4:29 AM 17.6 °F 4.3 °F 8.6 °F 68% 30.06 in 10.0 mi East 12.7 mph 18.4 mph N/A   Overcast
5:09 AM 17.6 °F 3.7 °F 8.6 °F 68% 30.07 in 10.0 mi East 13.8 mph - N/A   Overcast
5:31 AM 17.6 °F 3.2 °F 8.6 °F 68% 30.06 in 10.0 mi East 15.0 mph 19.6 mph N/A   Overcast
5:49 AM 17.6 °F 3.7 °F 8.6 °F 68% 30.05 in 10.0 mi East 13.8 mph - N/A   Overcast
6:51 AM 17.6 °F 5.0 °F 8.6 °F 68% 30.08 in 10.0 mi East 11.5 mph 17.3 mph N/A   Overcast
7:12 AM 15.8 °F 1.4 °F 6.8 °F 68% 30.06 in 10.0 mi East 13.8 mph 21.9 mph N/A   Overcast
7:53 AM 15.8 °F 0.9 °F 8.6 °F 73% 30.06 in 10.0 mi East 15.0 mph 21.9 mph N/A   Overcast
8:09 AM 15.8 °F 0.3 °F 8.6 °F 73% 30.07 in 10.0 mi East 16.1 mph 21.9 mph N/A   Overcast
8:33 AM 15.8 °F -1.1 °F 8.6 °F 73% 30.06 in 10.0 mi East 19.6 mph 25.3 mph N/A   Overcast
8:49 AM 15.8 °F -1.1 °F 8.6 °F 73% 30.04 in 10.0 mi East 19.6 mph 25.3 mph N/A   Overcast
9:11 AM 15.8 °F 1.4 °F 10.4 °F 79% 30.04 in 3.5 mi ENE 13.8 mph 24.2 mph N/A   Overcast
9:31 AM 14.0 °F -2.5 °F 10.4 °F 86% 30.04 in 2.5 mi East 17.3 mph - N/A   Overcast
9:52 AM 15.8 °F -0.6 °F 10.4 °F 79% 30.03 in 3.5 mi East 18.4 mph 24.2 mph N/A   Overcast
10:09 AM 15.8 °F 2.1 °F 10.4 °F 79% 30.03 in 10.0 mi East 12.7 mph - N/A   Overcast
11:17 AM 15.8 °F -0.6 °F 10.4 °F 79% 30.01 in 4.0 mi East 18.4 mph 23.0 mph N/A   Overcast
11:29 AM 15.8 °F 0.3 °F 10.4 °F 79% 30.01 in 10.0 mi East 16.1 mph 23.0 mph N/A   Overcast
11:53 AM 15.8 °F 1.4 °F 10.4 °F 79% 30.00 in 10.0 mi ENE 13.8 mph 20.7 mph N/A   Overcast
12:11 PM 15.8 °F 0.9 °F 10.4 °F 79% 30.00 in 10.0 mi East 15.0 mph - N/A   Overcast
12:29 PM 15.8 °F 2.1 °F 10.4 °F 79% 30.00 in 5.0 mi East 12.7 mph 18.4 mph N/A   Overcast
1:11 PM 15.8 °F 2.7 °F 10.4 °F 79% 29.97 in 1.8 mi ENE 11.5 mph - N/A   Overcast
1:33 PM 15.8 °F 2.7 °F 12.2 °F 86% 29.97 in 3.0 mi East 11.5 mph - N/A   Overcast
1:57 PM 15.8 °F 4.2 °F 10.4 °F 79% 29.97 in 3.5 mi ENE 9.2 mph - N/A   Overcast
2:09 PM 15.8 °F 4.2 °F 10.4 °F 79% 29.97 in 3.5 mi ENE 9.2 mph - N/A   Overcast
2:31 PM 15.8 °F 3.4 °F 10.4 °F 79% 29.97 in 5.0 mi ENE 10.4 mph - N/A   Overcast
3:16 PM 15.8 °F 3.4 °F 12.2 °F 86% 29.97 in 1.5 mi ENE 10.4 mph - N/A   Overcast
3:29 PM 15.8 °F 4.2 °F 12.2 °F 86% 29.97 in 1.0 mi NE 9.2 mph - N/A   Overcast
3:58 PM 15.8 °F 5.1 °F 12.2 °F 86% 29.97 in 1.5 mi NE 8.1 mph - N/A   Overcast
4:29 PM 15.8 °F 5.1 °F 12.2 °F 86% 29.98 in 2.0 mi NE 8.1 mph - N/A   Overcast
5:31 PM 15.8 °F 4.2 °F 10.4 °F 79% 29.99 in 0.8 mi NNE 9.2 mph - N/A   Overcast
5:49 PM 15.8 °F 4.2 °F 10.4 °F 79% 29.99 in 1.0 mi NNE 9.2 mph - N/A   Overcast
6:11 PM 15.8 °F 3.4 °F 10.4 °F 79% 30.00 in 1.2 mi NNE 10.4 mph - N/A   Overcast
6:29 PM 15.8 °F 2.7 °F 10.4 °F 79% 30.00 in 1.8 mi NNE 11.5 mph - N/A   Overcast
6:51 PM 14.0 °F 1.2 °F 10.4 °F 86% 30.01 in 1.8 mi North 10.4 mph - N/A   Overcast
7:09 PM 14.0 °F 2.0 °F 10.4 °F 86% 30.01 in 2.5 mi NNE 9.2 mph - N/A   Overcast
7:31 PM 14.0 °F -0.8 °F 10.4 °F 86% 30.02 in 1.5 mi North 13.8 mph - N/A   Overcast
8:13 PM 14.0 °F 1.2 °F 10.4 °F 86% 30.02 in 1.5 mi North 10.4 mph - N/A   Overcast
8:31 PM 14.0 °F 0.5 °F 10.4 °F 86% 30.02 in 1.8 mi NNE 11.5 mph - N/A   Overcast
8:49 PM 14.0 °F -0.8 °F 10.4 °F 86% 30.02 in 2.0 mi North 13.8 mph - N/A   Overcast
9:13 PM 14.0 °F 0.5 °F 10.4 °F 86% 30.02 in 3.0 mi North 11.5 mph - N/A   Overcast
9:29 PM 14.0 °F 1.2 °F 8.6 °F 79% 30.03 in 2.0 mi North 10.4 mph - N/A   Overcast
9:50 PM 14.0 °F -0.8 °F 10.4 °F 86% 30.02 in 2.5 mi North 13.8 mph - N/A   Overcast
10:17 PM 14.0 °F -0.8 °F 10.4 °F 86% 30.02 in 5.0 mi North 13.8 mph - N/A   Overcast
10:52 PM 14.0 °F -2.0 °F 10.4 °F 86% 30.04 in 5.0 mi NNW 16.1 mph - N/A   Overcast
11:11 PM 14.0 °F -1.4 °F 10.4 °F 86% 30.05 in 3.0 mi NNW 15.0 mph - N/A   Overcast
11:29 PM 14.0 °F -1.4 °F 10.4 °F 86% 30.05 in 7.0 mi NNW 15.0 mph - N/A   Overcast
11:51 PM 14.0 °F -2.5 °F 10.4 °F 86% 30.06 in 10.0 mi NNW 17.3 mph - N/A   Overcast